Location: Katowice
(50.2553°N, 19.0180°E)
Time: 05:24:44
(UTC+02:00)

ISS - Visible Passes

Search period start: 28 May 2018 00:00
Search period end: 07 June 2018 00:00
Orbit: 402 x 407 km, 51.6° (Epoch: 28 May)

Date Brightness Start Highest point End Pass type
(mag) Time Alt. Az. Time Alt. Az. Time Alt. Az.
28 May -1.5 01:07:41 10° W 01:08:21 14° W 01:08:21 14° W visible
28 May -3.7 22:38:46 10° WNW 22:42:03 73° N 22:45:05 12° E visible
29 May -2.9 00:15:20 10° W 00:17:42 35° WSW 00:17:42 35° WSW visible
29 May -3.5 21:46:30 10° W 21:49:47 67° N 21:53:02 10° E visible
29 May -3.9 23:23:02 10° WNW 23:26:17 62° SSW 23:27:06 44° SE visible
30 May -3.9 22:30:47 10° WNW 22:34:04 85° SSW 22:36:30 17° ESE visible
31 May -2.0 00:07:35 10° W 00:09:08 19° WSW 00:09:08 19° WSW visible
31 May -3.7 21:38:31 10° WNW 21:41:49 78° N 21:45:05 10° E visible
31 May -3.1 23:15:07 10° W 23:18:09 36° SSW 23:18:34 34° SSW visible
01 Jun -3.6 22:22:47 10° WNW 22:25:59 54° SSW 22:28:02 20° SE visible
02 Jun -1.2 00:00:23 10° WSW 00:00:40 11° WSW 00:00:40 11° WSW visible
02 Jun -3.8 21:30:28 10° WNW 21:33:45 77° SSW 21:37:01 10° ESE visible
02 Jun -2.2 23:07:23 10° W 23:09:52 20° SW 23:10:09 20° SSW visible
03 Jun -2.7 22:14:48 10° W 22:17:45 31° SSW 22:19:40 17° SSE visible
04 Jun -1.3 23:00:40 10° WSW 23:01:24 11° SW 23:01:50 10° SW visible
05 Jun -1.8 22:07:06 10° W 22:09:21 17° SW 22:11:24 11° S visible
